This is the latest recevied weather packets stored in our database for station/object DK4DO-10. If no packets are shown the sender has not sent any weather packets the latest 10 day(s).
| Time | Temp. | Humidity | Pressure | Rain* | Wind** | Luminosity | Snow |
|---|---|---|---|---|---|---|---|
| 1777962780 | 17.78° C | 49% | 1004.9 hPa | - | - | - | - |
| 1777962180 | 17.78° C | 49% | 1004.8 hPa | - | - | - | - |
| 1777961590 | 17.78° C | 49% | 1004.7 hPa | - | - | - | - |
| 1777960990 | 17.22° C | 49% | 1004.8 hPa | - | - | - | - |
| 1777960390 | 17.22° C | 49% | 1004.8 hPa | - | - | - | - |
| 1777959790 | 17.22° C | 49% | 1004.8 hPa | - | - | - | - |
| 1777959189 | 17.22° C | 50% | 1004.8 hPa | - | - | - | - |
| 1777958589 | 16.67° C | 51% | 1004.9 hPa | - | - | - | - |
| 1777957989 | 17.22° C | 50% | 1004.8 hPa | - | - | - | - |
| 1777957389 | 16.67° C | 50% | 1004.7 hPa | - | - | - | - |
| 1777956789 | 16.67° C | 50% | 1004.7 hPa | - | - | - | - |
| 1777956188 | 16.67° C | 51% | 1004.7 hPa | - | - | - | - |
| 1777955588 | 16.67° C | 50% | 1004.8 hPa | - | - | - | - |
| 1777954988 | 16.67° C | 51% | 1004.7 hPa | - | - | - | - |
| 1777954388 | 16.67° C | 51% | 1004.8 hPa | - | - | - | - |
| 1777953787 | 16.67° C | 51% | 1004.9 hPa | - | - | - | - |
| 1777953187 | 16.11° C | 53% | 1004.8 hPa | - | - | - | - |
| 1777952587 | 16.11° C | 52% | 1004.9 hPa | - | - | - | - |
| 1777951987 | 16.67° C | 51% | 1005 hPa | - | - | - | - |
| 1777951387 | 16.11° C | 53% | 1004.9 hPa | - | - | - | - |
| 1777950786 | 15.56° C | 54% | 1005.1 hPa | - | - | - | - |
| 1777950186 | 15.56° C | 54% | 1005.1 hPa | - | - | - | - |
| 1777949586 | 15.56° C | 55% | 1005.2 hPa | - | - | - | - |
| 1777948986 | 15.56° C | 54% | 1005.2 hPa | - | - | - | - |
| 1777948386 | 15.56° C | 55% | 1005.3 hPa | - | - | - | - |
* Rain since midnight (hover to see other rain measurements)
** Current wind speed in m/s (hover to see current wind gust speed)